COLIBRI-S (RS67S)

Last updated on Mon Sep 21 2026 00:03:14 GMT+0000 (Coordinated Universal Time)

1 61746U 24199M 26263.56693336 .00019416 00000+0 32926-3 0 9994 2 61746 97.2796 138.4633 0005695 303.0244 57.0461 15.51532933152182
UTC large
Height (km)
Speed (km/s)
/
Latitude / Longitude
Inclination (degrees)
Orbital Period (minutes)
Azimuth
Elevation
Range (km)
Doppler Factor

Next 0 passes for location: London (51.5072 / 0.1276)

No passes found over London.
COLIBRI-S (RS67S)